Weather History for CYEG - November, 2012

Change the Weather History Date:

Saturday, November 24, 2012

  Actual Average Record
Temperature  
Mean Temperature 14 °F -  
Max Temperature 26 °F 22 °F 50 °F (2005)
Min Temperature 2 °F 2 °F -27 °F (1996)
Degree Days  
Heating Degree Days 51    
Moisture  
Dew Point 14 °F    
Average Humidity 86    
Maximum Humidity 100    
Minimum Humidity 57    
Precipitation  
Precipitation 0.00 in 0.02 in - ()
Sea Level Pressure  
Sea Level Pressure 30.11 in    
Wind  
Wind Speed 6 mph ()    
Max Wind Speed 14 mph    
Max Gust Speed -    
Visibility 13.0 miles    
Events Fog , Snow    
Averages and records for this station are not official NWS values.
T = Trace of Precipitation, MM = Missing Value Source: Averaged Metar Reports

Daily Weather History Graph

Daily Weather History Graph

Search for Another Location

Airport or City:

Trip Planner

Search our weather history database for the weather conditions in past years. The results will help you decide how hot, cold, wet, or windy it might be!

Date:

Astronomy

Nov. 24, 2012 Rise Set
Actual Time 8:16 AM MST 4:25 PM MST
Civil Twilight 7:35 AM MST 5:06 PM MST
Nautical Twilight 6:52 AM MST 5:49 PM MST
Astronomical Twilight 6:10 AM MST 6:31 PM MST
Moon 2:34 PM MST (11/24) 4:12 AM MST (11/24)
Length of Visible Light 9h 30m
Length of Day
8h 09m
Waxing Gibbous, 87% of the Moon is Illuminated
Nov 24
Waxing Gibbous
Nov 28
Full
Dec 6
Last Quarter
Dec 13
New
Dec 19
First Quarter

Hourly Weather History & Observations

Time (MST) Temp. Windchill Dew Point Humidity Pressure Visibility Wind Dir Wind Speed Gust Speed Precip Events Conditions
12:00 AM 23.0 °F 11.7 °F 19.4 °F 86% 29.95 in 15.0 mi West 11.5 mph - N/A   Overcast
1:00 AM 23.0 °F 14.7 °F 21.2 °F 93% 29.96 in 15.0 mi WNW 6.9 mph - N/A   Mostly Cloudy
2:00 AM 23.0 °F 17.0 °F 21.2 °F 93% 29.97 in 15.0 mi West 4.6 mph - N/A   Mostly Cloudy
3:00 AM 17.6 °F 9.3 °F 15.8 °F 93% 29.99 in 15.0 mi West 5.8 mph - N/A Fog Shallow Fog
4:00 AM 19.4 °F 11.5 °F 17.6 °F 93% 30.01 in 15.0 mi West 5.8 mph - N/A   Partly Cloudy
5:00 AM 16 °F - 14 °F 86% 30.04 in 15 mi WSW 3.5 mph - - Fog Patches of Fog
5:00 AM 15.8 °F 8.6 °F 14.0 °F 93% 30.04 in 15.0 mi WSW 4.6 mph - N/A Fog Shallow Fog
6:00 AM 17.6 °F 9.3 °F 15.8 °F 93% 30.05 in 15.0 mi WSW 5.8 mph - N/A Fog Shallow Fog
7:00 AM 17.6 °F - 17.6 °F 100% 30.06 in 9.0 mi Calm Calm - N/A Fog Shallow Fog
7:17 AM 12.2 °F - 10.4 °F 92% 30.07 in 1.0 mi Calm Calm - N/A Fog Scattered Clouds
7:44 AM 14.0 °F 5.1 °F 10.4 °F 86% 30.07 in 2.0 mi SW 5.8 mph - N/A Fog Mostly Cloudy
8:00 AM 14.0 °F 3.9 °F 12.2 °F 93% 30.07 in 10.0 mi SW 6.9 mph - N/A   Mostly Cloudy
9:00 AM 17.6 °F 10.7 °F 15.8 °F 93% 30.08 in 12.0 mi WNW 4.6 mph - N/A   Mostly Cloudy
10:00 AM 23.0 °F 15.8 °F 21.2 °F 93% 30.09 in 12.0 mi WNW 5.8 mph - N/A   Overcast
11:00 AM 24 °F - 23 °F 92% 30.09 in 10 mi NW 4.6 mph - - Snow Light Snow
11:00 AM 23.0 °F 17.0 °F 23.0 °F 100% 30.09 in 10.0 mi NNW 4.6 mph - N/A Snow Light Snow
11:34 AM 23.0 °F 15.8 °F 23.0 °F 100% 30.10 in 10.0 mi NNW 5.8 mph - N/A   Overcast
12:00 PM 23.0 °F 13.9 °F 21.2 °F 93% 30.09 in 12.0 mi NNW 8.1 mph - N/A   Overcast
1:00 PM 23.0 °F 17.0 °F 21.2 °F 93% 30.09 in 15.0 mi West 4.6 mph - N/A   Mostly Cloudy
2:00 PM 26.6 °F 16.2 °F 19.4 °F 74% 30.10 in 15.0 mi West 11.5 mph - N/A   Mostly Cloudy
3:00 PM 23.0 °F 11.7 °F 17.6 °F 80% 30.14 in 15.0 mi NNW 11.5 mph - N/A   Mostly Cloudy
4:00 PM 15.8 °F 3.4 °F 12.2 °F 86% 30.17 in 15.0 mi North 10.4 mph - N/A   Mostly Cloudy
5:00 PM 15 °F - 11 °F 77% 30.21 in 15 mi North 11.5 mph - -   Overcast
5:00 PM 14.0 °F 1.2 °F 10.4 °F 86% 30.20 in 15.0 mi North 10.4 mph - N/A   Overcast
6:00 PM 14.0 °F 1.2 °F 8.6 °F 79% 30.22 in 15.0 mi North 10.4 mph - N/A   Overcast
7:00 PM 12.2 °F -1.0 °F 6.8 °F 79% 30.24 in 15.0 mi North 10.4 mph - N/A   Overcast
8:00 PM 10.4 °F -5.4 °F 3.2 °F 73% 30.25 in 15.0 mi North 13.8 mph - N/A   Overcast
9:00 PM 8.6 °F -3.7 °F 1.4 °F 73% 30.26 in 15.0 mi NNE 8.1 mph - N/A   Overcast
10:00 PM 6.8 °F -6.9 °F -0.4 °F 72% 30.25 in 15.0 mi NNE 9.2 mph - N/A   Overcast
11:00 PM 6 °F - -2 °F 57% 30.27 in 15 mi NNE 6.9 mph - -   Overcast
11:00 PM 5.0 °F -6.9 °F -2.2 °F 72% 30.26 in 15.0 mi NE 6.9 mph - N/A   Overcast